Location: Minneapolis
(44.9800°N, 93.2640°W)
Time: 07:44:22
(UTC-06:00)

Iridium 96 - Visible Passes

Search period start: 11 December 2016 00:00
Search period end: 21 December 2016 00:00
Orbit: 775 x 780 km, 86.4° (Epoch: 10 December)

Date Brightness Start Highest point End Pass type
(mag) Time Alt. Az. Time Alt. Az. Time Alt. Az.
16 Dec 8.2 07:01:31 10° NE 07:04:15 14° ENE 07:06:59 10° ESE visible
19 Dec 8.1 07:00:48 10° NNE 07:04:35 20° ENE 07:08:20 10° ESE visible
20 Dec 8.4 06:29:05 10° NE 06:30:37 11° ENE 06:32:09 10° E visible
